CW5761 Weather Reports


time (UTC)temp
C
wind
direction
speed
KPH
gust
KPH
rain 1hr
cm
rain 24hr
cm
rain mn
cm
humidity
%
barometer
mb
20260505175004 28 105 0.0 0.0 0.00 0.00 0.00 43 1009.2
20260505174004 28 119 0.0 0.0 0.00 0.00 0.00 45 1009.2
20260505173004 28 111 0.0 0.0 0.00 0.00 0.00 45 1009.2
20260505172004 28 63 0.0 0.0 0.00 0.00 0.00 43 1009.2
20260505171004 28 105 14.5 0.0 0.00 0.00 0.00 44 1009.3
20260505170004 27 98 0.0 0.0 0.00 0.00 0.00 42 1009.3
20260505165004 27 340 0.0 0.0 0.00 0.00 0.00 42 1009.6
20260505164004 27 349 0.0 0.0 0.00 0.00 0.00 44 1009.6
20260505163004 27 116 0.0 0.0 0.00 0.00 0.00 45 1009.6
20260505162004 27 126 0.0 0.0 0.00 0.00 0.00 42 1009.7
20260505153004 26 335 0.0 0.0 0.00 0.00 0.00 47 1010.2
20260505151005 25 94 0.0 0.0 0.00 0.00 0.00 49 1010.3
20260505115008 13 93 0.0 0.0 0.00 0.00 0.00 86 1011.0
20260505114009 12 93 0.0 0.0 0.00 0.00 0.00 89 1011.1
20260505113004 12 93 0.0 0.0 0.00 0.00 0.00 90 1011.1
20260505112009 11 93 0.0 0.0 0.00 0.00 0.00 91 1011.0
20260505111005 11 93 0.0 0.0 0.00 0.00 0.00 91 1011.0
20260505110229 10 93 0.0 0.0 0.00 0.00 0.00 90 1011.0
20260505102004 10 93 0.0 0.0 0.00 0.00 0.00 88 1010.7
20260505101500 10 93 0.0 0.0 0.00 0.00 0.00 88 1010.7
20260505095004 11 93 0.0 0.0 0.00 0.00 0.00 86 1010.4
20260505094009 11 93 0.0 0.0 0.00 0.00 0.00 85 1010.4
20260505093004 11 93 0.0 0.0 0.00 0.00 0.00 85 1010.4
20260505091004 12 93 0.0 0.0 0.00 0.00 0.00 83 1010.0
20260505090750 12 93 0.0 0.0 0.00 0.00 0.00 82 1010.0
20260505085004 12 93 0.0 0.0 0.00 0.00 0.00 81 1009.9
20260505082004 13 93 0.0 0.0 0.00 0.00 0.00 78 1009.9
20260505081004 14 93 0.0 0.0 0.00 0.00 0.00 77 1010.1
20260505080005 14 93 0.0 0.0 0.00 0.00 0.00 77 1010.1
20260505075004 14 93 0.0 0.0 0.00 0.00 0.00 77 1010.1
20260505074004 14 93 0.0 0.0 0.00 0.00 0.00 75 1010.0
20260505072004 15 93 0.0 0.0 0.00 0.00 0.00 74 1009.9
20260505071004 15 93 0.0 0.0 0.00 0.00 0.00 74 1009.9
20260505070005 14 93 0.0 0.0 0.00 0.00 0.00 74 1009.9
20260505065004 14 93 0.0 0.0 0.00 0.00 0.00 74 1009.9
20260505064005 14 93 0.0 0.0 0.00 0.00 0.00 73 1009.9
20260505062004 14 93 0.0 0.0 0.00 0.00 0.00 73 1009.9
20260505055005 14 93 0.0 0.0 0.00 0.00 0.00 72 1009.8
20260505054008 14 93 0.0 0.0 0.00 0.00 0.00 73 1009.9
20260505053005 14 93 0.0 0.0 0.00 0.00 0.00 71 1009.9
20260505052010 14 93 0.0 0.0 0.00 0.00 0.00 71 1010.1
20260505051354 14 93 0.0 0.0 0.00 0.00 0.00 72 1010.2
20260505040006 13 93 0.0 0.0 0.00 0.00 0.00 71 1010.0
20260505035245 13 93 0.0 0.0 0.00 0.00 0.00 72 1010.0
20260505025004 13 93 0.0 0.0 0.00 0.00 0.00 72 1010.4
20260505022004 13 93 0.0 0.0 0.00 0.00 0.00 69 1010.4
20260505021008 14 93 0.0 0.0 0.00 0.00 0.00 67 1010.5
20260505020005 15 93 0.0 0.0 0.00 0.00 0.00 66 1010.5
20260505015004 15 93 0.0 0.0 0.00 0.00 0.00 65 1010.4
20260505014008 15 93 0.0 0.0 0.00 0.00 0.00 63 1010.3
20260505013005 16 93 0.0 0.0 0.00 0.00 0.00 61 1010.3
20260505012429 16 93 0.0 0.0 0.00 0.00 0.00 59 1010.0
20260505005005 17 93 0.0 0.0 0.00 0.00 0.00 53 1009.7
20260505004009 18 93 0.0 0.0 0.00 0.00 0.00 52 1009.6
20260505003004 18 93 0.0 0.0 0.00 0.00 0.00 48 1009.6
20260504234003 20 94 0.0 0.0 0.00 0.00 0.00 45 1009.3
20260504233009 20 93 0.0 0.0 0.00 0.00 0.00 44 1009.3
20260504232004 21 92 0.0 0.0 0.00 0.00 0.00 43 1009.2
20260504231003 21 96 0.0 0.0 0.00 0.00 0.00 42 1009.2
20260504225208 21 100 0.0 0.0 0.00 0.00 0.00 43 1009.1
20260504215004 22 84 0.0 0.0 0.00 0.00 0.00 42 1009.4
20260504214004 22 75 0.0 0.0 0.00 0.00 0.00 40 1009.5
20260504213004 22 36 0.0 0.0 0.00 0.00 0.00 42 1009.5
20260504212004 22 89 1.6 0.0 0.00 0.00 0.00 40 1009.5
20260504211003 22 90 0.0 0.0 0.00 0.00 0.00 40 1009.5
20260504210004 22 105 0.0 0.0 0.00 0.00 0.00 40 1009.5
20260504205004 22 355 0.0 0.0 0.00 0.00 0.00 39 1009.6
20260504204008 22 90 3.2 0.0 0.00 0.00 0.00 41 1009.5
20260504203004 22 83 0.0 0.0 0.00 0.00 0.00 41 1009.5
20260504202914 22 82 0.0 0.0 0.00 0.00 0.00 43 1009.5
20260504185004 22 326 0.0 0.0 0.00 0.00 0.00 40 1010.6
20260504184005 22 344 0.0 0.0 0.00 0.00 0.00 38 1010.6
20260504183008 22 130 4.8 0.0 0.00 0.00 0.00 39 1010.6